Location: Litvinovka
(48.6667°N, 34.3500°E)
Time: 11:09:41
(UTC+00:00)

ERS-1 Rocket - Pass Details

Date: 18 September 2020
Orbit: 753 x 757 km, 98.5° (Epoch: 25 October)

Event Time Altitude Azimuth Distance (km) Brightness Sun altitude
Exits shadow 19:17:24 46° 345° (NNW) 1,019 3.9 -31.6°
Drops below altitude 10° 19:20:54 10° 346° (NNW) 2,295 6.2 -31.9°
Sets 19:23:12 0° 346° (NNW) 3,226 7.1 -32.2°
